Location: Lafig�re
(44.4503°N, 4.0357°E)
Time: 17:18:16
(UTC+00:00)

deb Explorer IX - Pass Details

Date: 28 January 2021
Orbit: 537 x 1102 km, 38.8° (Epoch: 04 March)

Event Time Altitude Azimuth Distance (km) Brightness Sun altitude
Rises 14:43:39 0° 216° (SW) 3,898 ? 16.9°
Reaches altitude 10° 14:46:56 10° 205° (SSW) 2,919 ? 16.5°
Maximum altitude 14:52:36 26° 152° (SSE) 1,930 ? 15.8°
Drops below altitude 10° 14:57:53 10° 100° (E) 2,713 ? 15.1°
Sets 15:00:49 0° 87° (E) 3,572 ? 14.8°
